Regional Weather Roundup
Issued by NWS

Home | Current Version | Previous Version | Text Only | Print | Product List | Glossary On
Versions: 1 2 3 4 5 6 7 8 9 10 11 12 13 14 15 16 17 18 19 20 21 22 23 24 25 26 27 28 29 30 31 32 33 34 35 36 37 38 39 40 41 42 43 44 45 46 47 48 49 50
000
ASUS43 KFSD 190002
RWRSD

WEATHER ROUNDUP FOR SOUTH DAKOTA
NATIONAL WEATHER SERVICE SIOUX FALLS SD
700 PM CDT WED OCT 18 2017

NOTE: "FAIR" INDICATES FEW OR NO CLOUDS BELOW 12,000 FEET WITH NO
SIGNIFICANT WEATHER AND/OR OBSTRUCTIONS TO VISIBILITY.


SDZ001>005-009-010-012>017-190100-
NORTHWEST AND NORTH CENTRAL SOUTH DAKOTA

CITY           SKY/WX    TMP DP  RH WIND       PRES   REMARKS
BUFFALO          N/A     55  26  32 S9        29.91S
FAITH            N/A     54  24  31 S8        30.00S
MOBRIDGE       CLEAR     52  26  36 CALM      29.97R
$$

SDZ012>016-024>037-041>051-057-063-072>074-190100-
SOUTHWEST AND SOUTH CENTRAL SOUTH DAKOTA

CITY           SKY/WX    TMP DP  RH WIND       PRES   REMARKS
RAPID CTY ARPT CLEAR     58  29  33 S14       30.00F
PIERRE         CLOUDY    57  24  28 S8        30.01F
CUSTER         CLEAR     53  23  31 SW5       30.09F
ELLSWORTH AFB  CLEAR     60  29  30 S15       29.98F
PHILIP         CLEAR     57  30  35 SE6       30.02F
PINE RIDGE     CLEAR     59  30  33 SE7       30.05F
SPEARFISH      FAIR      55  28  35 CALM      29.99F
WINNER         FAIR      61  28  28 SE5       30.06S
$$

SDZ004>011-016>023-039-040-190100-
NORTHEAST SOUTH DAKOTA

CITY           SKY/WX    TMP DP  RH WIND       PRES   REMARKS
ABERDEEN       CLEAR     49  27  42 W5        30.01R
WATERTOWN      CLEAR     46  31  55 W6        30.01R
SISSETON         N/A     52  28  39 W8        29.97R
$$

SDZ017-020-022-023-036>040-048>070-190100-
SOUTHEAST SOUTH DAKOTA

CITY           SKY/WX    TMP DP  RH WIND       PRES   REMARKS
SIOUX FALLS    MOCLDY    60  32  34 N5        30.03R HAZE
HURON          CLEAR     52  32  46 CALM      30.03R HAZE
MITCHELL       CLEAR     62  22  21 N3        30.05R
YANKTON        CLEAR     57  38  48 NW10      30.04R
$$

ABBREVIATIONS USED IN REMARKS
   TC - TEMPERATURE IN CELSIUS
  WCI - WIND CHILL INDEX
   HX - HEAT INDEX
  VSB - VISIBILITY




USA.gov is the U.S. government's official web portal to all federal, state and local government web resources and services.